Tracking 28790 objects as of 19-Apr-2024
HD Live streaming from Space Station
objects crossing your sky now

COSMOS 2251 DEB

Track COSMOS 2251 DEB now!
10-day predictions


NORAD ID: 34760
Int'l Code: 1993-036AAE
Perigee: 769.9 km
Apogee: 915.5 km
Inclination: 74.1 °
Period: 101.6 minutes
Semi major axis: 7213 km
RCS: 0.0121 m2 (small)
Launch date: June 16, 1993
Source: Commonwealth of Independent States (former USSR) (CIS)
Launch site: PLESETSK MISSILE AND SPACE COMPLEX (PKMTR)

Note: This is SATELLITE DEBRIS
Your satellite tracking list
Your tracking list is empty




NASA's NSSDC Master Catalog

Two Line Element Set (TLE):
1 34760U 93036AAE 24109.50969251  .00002984  00000-0  14242-2 0  9992
2 34760  74.0617 296.9173 0100940 137.3057 254.0595 14.16983694781359
Source of the keplerian elements: AFSPC